Flag for Switzerland Weather past 2 weeks in Muttenz, Basel-Land, Switzerland

50 °F

Passing clouds.

Feels Like: 44 °F
Forecast: 33 / 45 °F
Wind: 17 mph from West

Location: Bale-Mulhouse

Current Time: Dec 1, 2015 at 4:23:13 AM

Latest Report: Dec 1, 2015 at 4:00 AM

Visibility: N/A

Pressure: 30.36 "Hg

Humidity: 82%

Dew point: 45 °F

Location of MuttenzLocation

Historic Weather in Muttenz — Graph


Muttenz temperature yesterday

Maximum temperature yesterday: 54 °F (at 12:30 PM)
Minimum temperature yesterday: 48 °F (at 3:00 AM)
Average temperature yesterday: 51 °F

Past Weeks' High & Low Weather Summary

High64 °F (Nov 18, 2:00 PM)100% (Nov 16, 3:00 AM)30.39 "Hg (Nov 16, 3:00 AM)
Low23 °F (Nov 24, 5:30 AM)42% (Nov 16, 1:00 PM)29.45 "Hg (Nov 21, 12:30 PM)
Average44 °F82%30.04 "Hg
* Reported Nov 16 3:00 AM — Dec 1 3:00 AM, Muttenz, Weather by CustomWeather, © 2015

Note: Actual official high and low records may vary slightly from our data, if they occured in-between our weather recording intervals... More about our weather records


Muttenz weather history for previous 24 hours

Time TempWeatherWind HumidityBarometerVisibility
3:00 AM
Tue, Dec 1
52 °FPassing clouds.17 mph72%30.36 "HgN/A
2:30 AM52 °FMostly cloudy.22 mph72%30.33 "HgN/A
1:30 AM52 °FMostly cloudy.18 mph72%30.36 "HgN/A
1:00 AM50 °FOvercast.17 mph76%30.36 "HgN/A
12:30 AM50 °FMostly cloudy.10 mph76%30.36 "HgN/A
12:00 AM50 °FPassing clouds.9 mph76%30.39 "HgN/A
11:30 PM
Mon, Nov 30
50 °FPassing clouds.2 mph76%30.39 "HgN/A
11:00 PM50 °FPassing clouds.12 mph76%30.39 "HgN/A
10:30 PM50 °FPassing clouds.6 mph82%30.39 "HgN/A
10:00 PM48 °FPartly cloudy.5 mph87%30.39 "HgN/A
9:30 PM48 °FPassing clouds.6 mph87%30.36 "HgN/A
9:00 PM48 °FPassing clouds.5 mph87%30.36 "HgN/A
8:30 PM48 °FPassing clouds.15 mph87%30.36 "HgN/A
8:00 PM50 °FPassing clouds.16 mph76%30.36 "HgN/A
7:30 PM52 °FPartly cloudy.17 mph72%30.36 "HgN/A
7:00 PM52 °FPartly cloudy.15 mph67%30.33 "HgN/A
6:30 PM52 °FPassing clouds.13 mph67%30.33 "HgN/A
6:00 PM52 °FPassing clouds.16 mph72%30.33 "HgN/A
5:30 PM52 °FPartly cloudy.15 mph72%30.33 "HgN/A
5:00 PM52 °FPassing clouds.10 mph72%30.33 "HgN/A
4:30 PM52 °FPartly sunny.13 mph72%30.33 "HgN/A
4:00 PM52 °FPartly sunny.12 mph77%30.33 "HgN/A
3:30 PM50 °FLight rain. Broken clouds.15 mph88%30.33 "HgN/A
3:00 PM52 °FPartly sunny.14 mph82%30.36 "HgN/A
2:30 PM50 °FDrizzle. Broken clouds.13 mph88%30.36 "HgN/A
2:00 PM50 °FDrizzle. Broken clouds.13 mph88%30.36 "HgN/A
1:00 PM52 °FLight rain. Broken clouds.13 mph82%30.36 "HgN/A
12:30 PM54 °FBroken clouds.18 mph67%30.36 "HgN/A
12:00 PM52 °FBroken clouds.14 mph77%30.39 "HgN/A
11:30 AM50 °FLight rain. Broken clouds.14 mph82%30.39 "HgN/A
11:00 AM52 °FBroken clouds.12 mph72%30.39 "HgN/A
10:30 AM52 °FOvercast.16 mph72%30.39 "HgN/A
10:00 AM52 °FOvercast.13 mph72%30.39 "HgN/A
9:30 AM52 °FCloudy.15 mph72%30.39 "HgN/A
9:00 AM50 °FMore clouds than sun.10 mph76%30.39 "HgN/A
8:00 AM50 °FMore clouds than sun.12 mph76%30.36 "HgN/A
7:30 AM50 °FOvercast.10 mph71%30.36 "HgN/A
7:00 AM50 °FMostly cloudy.7 mph71%30.36 "HgN/A
6:30 AM50 °FPartly cloudy.7 mph71%30.36 "HgN/A
6:00 AM50 °FPartly cloudy.7 mph76%30.36 "HgN/A
5:30 AM50 °FPartly cloudy.13 mph76%30.36 "HgN/A
4:30 AM50 °FLight rain. Passing clouds.12 mph71%30.33 "HgN/A
4:00 AM50 °FLight rain. Partly cloudy.13 mph76%30.33 "HgN/A
Weather by CustomWeather, © 2015

See weather overviewHow to use our weather pages